Whiteman AFB, MO

7:01 PM CST on December 06, 2019 (GMT -0600)
Whiteman Air Force Base

Weather History for KSZL - October, 2019

Change the Weather History Date:

Monday, October 14, 2019

  Actual Average Record
Temperature  
Mean Temperature 54 °F -  
Max Temperature 73 °F 66 °F 86 °F (2017)
Min Temperature 37 °F 45 °F 33 °F (2006)
Degree Days  
Heating Degree Days 10    
Growing Degree Days 4 (Base 50)    
Moisture  
Dew Point 45 °F    
Average Humidity 79    
Maximum Humidity 100    
Minimum Humidity 38    
Precipitation  
Precipitation 0.00 in - - ()
Sea Level Pressure  
Sea Level Pressure 30.00 in    
Wind  
Wind Speed 3 mph (SE)    
Max Wind Speed 13 mph    
Max Gust Speed -    
Visibility 7 miles    
Events      
Averages and records for this station are not official NWS values.
T = Trace of Precipitation, MM = Missing Value Source: NWS Daily Summary

Daily Weather History Graph

Daily Weather History Graph

Search for Another Location

Airport or City:

Astronomy

Oct. 14, 2019 Rise Set
Actual Time 7:22 AM CDT 6:37 PM CDT
Civil Twilight 6:55 AM CDT 7:04 PM CDT
Nautical Twilight 6:24 AM CDT 7:35 PM CDT
Astronomical Twilight 5:53 AM CDT 8:05 PM CDT
Moon 7:28 PM CDT (10/14) 7:54 AM CDT (10/14)
Length of Visible Light 12h 08m
Length of Day
11h 15m
Full, 99% of the Moon is Illuminated
Oct 14
Full
Oct 21
Last Quarter
Oct 27
New
Nov 4
First Quarter
Nov 12
Full

Hourly Weather History & Observations

Time (CDT) Temp. Windchill Dew Point Humidity Pressure Visibility Wind Dir Wind Speed Gust Speed Precip Events Conditions
12:56 AM 41.2 °F - 41.2 °F 100% 29.99 in 7.0 mi Calm Calm - N/A   Clear
1:56 AM 40.6 °F - 40.6 °F 100% 30.00 in 5.0 mi Calm Calm - N/A   Clear
2:56 AM 41.4 °F - 41.4 °F 100% 30.01 in 9.0 mi Calm Calm - N/A   Clear
3:56 AM 40.6 °F - 40.6 °F 100% 30.02 in 5.0 mi Calm Calm - N/A   Clear
4:56 AM 39.6 °F - 39.6 °F 100% 30.01 in 8.0 mi Calm Calm - N/A   Clear
5:56 AM 37.6 °F - 37.6 °F 100% 30.01 in 9.0 mi Calm Calm - N/A   Clear
6:56 AM 37.9 °F 34.4 °F 37.9 °F 100% 30.03 in 9.0 mi South 4.6 mph - N/A   Clear
7:56 AM 38.1 °F - 38.1 °F 100% 30.04 in 10.0 mi Calm Calm - N/A   Clear
8:16 AM 41.0 °F 39.0 °F 41.0 °F 100% 30.05 in 2.8 mi ENE 3.5 mph - N/A   Clear
8:46 AM 44.6 °F - 44.6 °F 100% 30.06 in 1.9 mi Calm Calm - N/A   Clear
8:56 AM 46.6 °F - 46.4 °F 99% 30.06 in 1.8 mi East 3.5 mph - N/A   Clear
9:11 AM 48.2 °F - 46.4 °F 93% 30.06 in 1.8 mi ESE 4.6 mph - N/A   Clear
9:36 AM 50.0 °F - 48.2 °F 94% 30.06 in 2.0 mi ESE 3.5 mph - N/A   Clear
9:41 AM 51.8 °F - 48.2 °F 88% 30.06 in 1.9 mi East 3.5 mph - N/A   Clear
9:51 AM 51.8 °F - 48.2 °F 88% 30.06 in 2.0 mi SE 3.5 mph - N/A   Clear
9:56 AM 52.5 °F - 49.1 °F 88% 30.06 in 2.8 mi SSE 3.5 mph - N/A   Clear
10:01 AM 53.6 °F - 50.0 °F 88% 30.06 in 4.0 mi SE 3.5 mph - N/A   Haze
10:06 AM 55.4 °F - 50.0 °F 82% 30.05 in 2.8 mi ESE 3.5 mph - N/A   Haze
10:16 AM 55.4 °F - 50.0 °F 82% 30.05 in 3.0 mi SE 3.5 mph - N/A   Haze
10:56 AM 62.4 °F - 47.8 °F 59% 30.04 in 10.0 mi SSE 6.9 mph - N/A   Clear
11:56 AM 66.2 °F - 47.5 °F 51% 30.02 in 10.0 mi South 6.9 mph - N/A   Clear
12:56 PM 69.3 °F - 47.7 °F 46% 30.00 in 10.0 mi South 6.9 mph - N/A   Clear
1:56 PM 71.2 °F - 48.2 °F 44% 29.96 in 10.0 mi SSE 9.2 mph - N/A   Clear
4:56 PM 72.3 °F - 45.3 °F 38% 29.91 in 10.0 mi South 10.4 mph - N/A   Clear
5:56 PM 67.8 °F - 47.5 °F 48% 29.90 in 10.0 mi SSE 6.9 mph - N/A   Clear
6:56 PM 64.0 °F - 46.0 °F 52% 29.88 in 10.0 mi SE 4.6 mph - N/A   Clear
7:56 PM 60.8 °F - 47.3 °F 61% 29.88 in 10.0 mi SE 4.6 mph - N/A   Clear
8:56 PM 61.2 °F - 45.9 °F 57% 29.88 in 10.0 mi SE 5.8 mph - N/A   Clear
9:56 PM 60.4 °F - 45.1 °F 57% 29.87 in 10.0 mi SSE 9.2 mph - N/A   Clear
10:56 PM 59.7 °F - 46.8 °F 62% 29.86 in 10.0 mi South 12.7 mph - N/A   Clear